This demonstration page uses our WeatherBlox Daily Observations layout. Learn more.

Left ArrowRight Arrow

53.62937, 11.41316

Hourly Observations for December 29, 2019

Temp ( °F °C ) Dew Point ( °F °C ) Humidity (%) Winds ( mph kmh ) Pressure ( in mb ) Visibility ( mi km ) Precip ( " mm )
6:50 am 06:50 Mostly Clear 28 -2 25 -4 86 86 S 5 7 30.66 1038 7 11 N/A
7:20 am 07:20 Mostly Clear 30 -1 27 -3 86 86 S 6 9 30.66 1038 7 11 N/A
7:50 am 07:50 Mostly Clear 30 -1 27 -3 86 86 VRB 2 4 30.66 1038 7 11 N/A
8:20 am 08:20 Mostly Clear 30 -1 27 -3 86 86 VRB 2 4 30.66 1038 7 11 N/A
8:50 am 08:50 Mostly Sunny 30 -1 27 -3 86 86 S 5 7 30.63 1037 7 11 N/A
9:20 am 09:20 Mostly Sunny 30 -1 27 -3 86 86 SSW 7 11 30.63 1037 7 11 N/A
9:50 am 09:50 Mostly Sunny 30 -1 27 -3 86 86 SW 6 9 30.63 1037 7 11 N/A
10:20 am 10:20 Mostly Sunny 30 -1 27 -3 86 86 SW 7 11 30.66 1038 7 11 N/A
10:50 am 10:50 Mostly Sunny 32 0 27 -3 80 80 SSW 7 11 30.63 1037 7 11 N/A
11:20 am 11:20 Mostly Sunny 32 0 27 -3 80 80 SW 8 13 30.63 1037 7 11 N/A
11:50 am 11:50 Mostly Sunny 32 0 28 -2 87 87 SSW 7 11 30.63 1037 7 11 N/A
12:20 pm 12:20 Mostly Sunny 34 1 28 -2 81 81 S 6 9 30.60 1036 7 11 N/A
12:50 pm 12:50 Mostly Sunny 34 1 28 -2 81 81 W 7 11 30.60 1036 7 11 N/A
1:20 pm 13:20 Mostly Sunny 34 1 28 -2 81 81 SSW 9 15 30.57 1035 7 11 N/A
1:50 pm 13:50 Mostly Sunny 34 1 28 -2 81 81 SSW 6 9 30.57 1035 7 11 N/A
2:20 pm 14:20 Mostly Sunny 34 1 28 -2 81 81 SSW 7 11 30.57 1035 7 11 N/A
2:50 pm 14:50 Mostly Sunny 34 1 28 -2 81 81 SW 7 11 30.57 1035 7 11 N/A
3:20 pm 15:20 Mostly Sunny 34 1 28 -2 81 81 SW 7 11 30.57 1035 7 11 N/A
3:50 pm 15:50 Mostly Sunny 34 1 28 -2 81 81 SW 8 13 30.57 1035 7 11 N/A
4:20 pm 16:20 Mostly Clear 34 1 28 -2 81 81 SW 7 11 30.57 1035 7 11 N/A
4:50 pm 16:50 Mostly Clear 34 1 28 -2 81 81 SSW 8 13 30.57 1035 7 11 N/A
5:20 pm 17:20 Mostly Clear 34 1 27 -3 75 75 SSW 8 13 30.54 1034 7 11 N/A
5:50 pm 17:50 Mostly Clear 36 2 27 -3 70 70 SW 7 11 30.54 1034 7 11 N/A
6:20 pm 18:20 Mostly Clear 34 1 27 -3 75 75 SW 8 13 30.51 1033 7 11 N/A
6:50 pm 18:50 Mostly Clear 34 1 27 -3 75 75 SW 5 7 30.54 1034 7 11 N/A
7:20 pm 19:20 Mostly Clear 34 1 27 -3 75 75 SSW 5 7 30.51 1033 7 11 N/A
7:50 pm 19:50 Mostly Clear 36 2 27 -3 70 70 SSW 7 11 30.51 1033 7 11 N/A

Powered by AerisWeather